ROBIN1 KLAL-

Flight info

Callsign ROBIN1
Flight time N/A
Altitude VFR
Route
Aircraft DR40/L-DOV/C

Departure

Time 2026-04-22 00:42
Airport Lakeland Linder International Airport (KLAL)

Arrival

Time N/A
Airport -
Time Latitude Longitude Altitude Speed Heading
2026-04-22 00:32 27.98365 -82.02044 127 ft 28 kts 315°
2026-04-22 00:32 27.98484 -82.02055 126 ft 20 kts 50°
2026-04-22 00:33 27.98542 -82.01994 127 ft 20 kts 45°
2026-04-22 00:33 27.98599 -82.01929 127 ft 20 kts 44°
2026-04-22 00:33 27.98664 -82.01860 127 ft 21 kts 43°
2026-04-22 00:33 27.98728 -82.01855 127 ft 20 kts 291°
2026-04-22 00:34 27.98730 -82.01959 127 ft 28 kts 266°
2026-04-22 00:34 27.98733 -82.02103 127 ft 31 kts 269°
2026-04-22 00:34 27.98732 -82.02251 124 ft 31 kts 274°
2026-04-22 00:34 27.98810 -82.02316 124 ft 22 kts 313°
2026-04-22 00:35 27.98818 -82.02413 123 ft 22 kts 270°
2026-04-22 00:35 27.98817 -82.02522 121 ft 25 kts 269°
2026-04-22 00:35 27.98817 -82.02652 121 ft 36 kts 269°
2026-04-22 00:35 27.98816 -82.02828 121 ft 37 kts 269°
2026-04-22 00:36 27.98816 -82.02992 124 ft 34 kts 270°
2026-04-22 00:36 27.98813 -82.03121 124 ft 21 kts 269°
2026-04-22 00:36 27.98815 -82.03239 125 ft 27 kts 271°
2026-04-22 00:36 27.98827 -82.03343 127 ft 12 kts 336°
2026-04-22 00:37 27.98859 -82.03355 127 ft 4 kts 348°
2026-04-22 00:37 27.98884 -82.03361 127 ft 0 kts
2026-04-22 00:37 27.98886 -82.03361 127 ft 0 kts 11°
2026-04-22 00:38 27.98921 -82.03339 127 ft 21 kts 58°
2026-04-22 00:39 27.98926 -82.03313 127 ft 0 kts 89°
2026-04-22 00:40 27.98926 -82.03312 127 ft 1 kts 89°
2026-04-22 00:40 27.98926 -82.03297 127 ft 12 kts 89°
2026-04-22 00:41 27.98927 -82.03120 126 ft 60 kts 89°
2026-04-22 00:41 27.98927 -82.02782 229 ft 77 kts 90°
2026-04-22 00:41 27.98936 -82.02465 440 ft 74 kts 88°
2026-04-22 00:41 27.98947 -82.02139 591 ft 80 kts 90°
2026-04-22 00:42 27.98961 -82.01812 804 ft 78 kts 88°
2026-04-22 00:42 27.98988 -82.01492 1033 ft 76 kts 86°
2026-04-22 00:42 27.99015 -82.01189 1145 ft 82 kts 88°
2026-04-22 00:42 27.99038 -82.00870 1199 ft 93 kts 87°
2026-04-22 00:43 27.99089 -82.00150 1228 ft 103 kts 87°
2026-04-22 00:43 27.99140 -81.99375 1329 ft 107 kts 88°
2026-04-22 00:43 27.99166 -81.98707 1449 ft 109 kts 89°
2026-04-22 00:43 27.99190 -81.98067 1561 ft 110 kts 89°
2026-04-22 00:44 27.99214 -81.97401 1676 ft 111 kts 89°
2026-04-22 00:44 27.99233 -81.96925 1757 ft 112 kts 89°
2026-04-22 00:44 27.99254 -81.96393 1848 ft 112 kts 89°
2026-04-22 00:44 27.99284 -81.95626 1976 ft 113 kts 89°
2026-04-22 00:45 27.99320 -81.94769 2142 ft 113 kts 89°
2026-04-22 00:45 27.99347 -81.94151 2279 ft 112 kts 89°
2026-04-22 00:45 27.99381 -81.93405 2446 ft 112 kts 89°
2026-04-22 00:45 27.99429 -81.92363 2504 ft 115 kts 89°
2026-04-22 00:46 27.99472 -81.91409 2521 ft 117 kts 89°
2026-04-22 00:46 27.99516 -81.90402 2528 ft 119 kts 89°
2026-04-22 00:46 27.99557 -81.89407 2533 ft 122 kts 89°
2026-04-22 00:46 27.99602 -81.88296 2534 ft 124 kts 89°
2026-04-22 00:47 27.99652 -81.86997 2535 ft 125 kts 89°
2026-04-22 00:47 27.99699 -81.85720 2534 ft 126 kts 89°
2026-04-22 00:47 27.99753 -81.84194 2534 ft 127 kts 89°
2026-04-22 00:47 27.99801 -81.82800 2535 ft 127 kts 89°
2026-04-22 00:48 27.99890 -81.81509 2535 ft 128 kts 85°
2026-04-22 00:48 27.99978 -81.80603 2534 ft 128 kts 86°
2026-04-22 00:48 28.00079 -81.79523 2534 ft 128 kts 85°
2026-04-22 00:48 28.00207 -81.78162 2534 ft 128 kts 85°
2026-04-22 00:49 28.00335 -81.76804 2533 ft 128 kts 86°
2026-04-22 00:49 28.00426 -81.75829 2533 ft 127 kts 86°
2026-04-22 00:49 28.00532 -81.74681 2533 ft 127 kts 86°
2026-04-22 00:49 28.00626 -81.73675 2532 ft 127 kts 86°
2026-04-22 00:50 28.00725 -81.72604 2532 ft 126 kts 86°
2026-04-22 00:50 28.00824 -81.71535 2532 ft 126 kts 86°
2026-04-22 00:50 28.00926 -81.70434 2532 ft 126 kts 86°
2026-04-22 00:50 28.01030 -81.69301 2532 ft 126 kts 86°
2026-04-22 00:51 28.01172 -81.67759 2532 ft 125 kts 86°
2026-04-22 00:51 28.01292 -81.66460 2532 ft 125 kts 86°
2026-04-22 00:51 28.01445 -81.64794 2532 ft 125 kts 86°
2026-04-22 00:51 28.01555 -81.63600 2533 ft 125 kts 86°
2026-04-22 00:52 28.01647 -81.62595 2533 ft 124 kts 86°
2026-04-22 00:52 28.01731 -81.61674 2533 ft 124 kts 86°
2026-04-22 00:52 28.01808 -81.60838 2533 ft 124 kts 86°
2026-04-22 00:52 28.01922 -81.59586 2533 ft 124 kts 86°
2026-04-22 00:53 28.02003 -81.58709 2533 ft 124 kts 86°
2026-04-22 00:53 28.02083 -81.57832 2533 ft 124 kts 86°
2026-04-22 00:53 28.02168 -81.56898 2534 ft 124 kts 86°
2026-04-22 00:53 28.02277 -81.55708 2534 ft 124 kts 86°
2026-04-22 00:54 28.02375 -81.54632 2535 ft 125 kts 86°
2026-04-22 00:54 28.02476 -81.53523 2535 ft 125 kts 86°
2026-04-22 00:54 28.02544 -81.52769 2535 ft 125 kts 86°
2026-04-22 00:54 28.02609 -81.52055 2536 ft 125 kts 86°
2026-04-22 00:55 28.02678 -81.51299 2536 ft 125 kts 86°
2026-04-22 00:55 28.02798 -81.49976 2536 ft 125 kts 86°
2026-04-22 00:55 28.03018 -81.47553 2537 ft 125 kts 86°
2026-04-22 00:56 28.03118 -81.46448 2538 ft 126 kts 86°
2026-04-22 00:56 28.03240 -81.45094 2538 ft 126 kts 87°
2026-04-22 00:56 28.03382 -81.43519 2539 ft 126 kts 87°
2026-04-22 00:56 28.03486 -81.42365 2539 ft 126 kts 87°
2026-04-22 00:57 28.03589 -81.41232 2539 ft 126 kts 87°
2026-04-22 00:57 28.03706 -81.39923 2540 ft 127 kts 87°
2026-04-22 00:57 28.03781 -81.39093 2540 ft 127 kts 87°
2026-04-22 00:57 28.03862 -81.38198 2541 ft 127 kts 87°
2026-04-22 00:58 28.03930 -81.37431 2541 ft 127 kts 87°
2026-04-22 00:58 28.04003 -81.36620 2541 ft 127 kts 87°
2026-04-22 00:58 28.04080 -81.35765 2542 ft 127 kts 87°
2026-04-22 00:58 28.04149 -81.34996 2541 ft 127 kts 87°
2026-04-22 00:59 28.04232 -81.34055 2543 ft 127 kts 87°
2026-04-22 00:59 28.04349 -81.32749 2543 ft 127 kts 87°
2026-04-22 00:59 28.04430 -81.31837 2542 ft 127 kts 87°
2026-04-22 00:59 28.04516 -81.30875 2542 ft 127 kts 87°
2026-04-22 01:00 28.04589 -81.30062 2541 ft 127 kts 87°
2026-04-22 01:00 28.04665 -81.29208 2541 ft 127 kts 87°
2026-04-22 01:00 28.04739 -81.28375 2540 ft 127 kts 87°
2026-04-22 01:00 28.04838 -81.27269 2539 ft 127 kts 87°
2026-04-22 01:01 28.04904 -81.26523 2539 ft 127 kts 87°
2026-04-22 01:01 28.04974 -81.25734 2539 ft 127 kts 86°
2026-04-22 01:01 28.05041 -81.24989 2538 ft 127 kts 86°
2026-04-22 01:01 28.05114 -81.24165 2538 ft 127 kts 86°
2026-04-22 01:02 28.05177 -81.23456 2537 ft 126 kts 86°
2026-04-22 01:02 28.05237 -81.22782 2537 ft 126 kts 86°
2026-04-22 01:02 28.05299 -81.22074 2536 ft 126 kts 86°
2026-04-22 01:02 28.05358 -81.21418 2536 ft 126 kts 86°
2026-04-22 01:03 28.05417 -81.20745 2536 ft 126 kts 86°
2026-04-22 01:03 28.05474 -81.20107 2535 ft 126 kts 86°
2026-04-22 01:03 28.05547 -81.19280 2535 ft 126 kts 86°
2026-04-22 01:03 28.05645 -81.18162 2535 ft 126 kts 86°
2026-04-22 01:04 28.05706 -81.17455 2534 ft 126 kts 86°
2026-04-22 01:04 28.05794 -81.16232 2535 ft 127 kts 81°
2026-04-22 01:04 28.05915 -81.14972 2535 ft 127 kts 80°
2026-04-22 01:04 28.06030 -81.13725 2535 ft 128 kts 81°
2026-04-22 01:05 28.06233 -81.12470 2534 ft 127 kts 73°
2026-04-22 01:05 28.06504 -81.11169 2534 ft 127 kts 73°
2026-04-22 01:05 28.06708 -81.10183 2534 ft 127 kts 73°
2026-04-22 01:05 28.06879 -81.09358 2534 ft 127 kts 73°
2026-04-22 01:06 28.07061 -81.08474 2534 ft 127 kts 73°
2026-04-22 01:06 28.07271 -81.07454 2533 ft 127 kts 73°
2026-04-22 01:06 28.07550 -81.06093 2533 ft 127 kts 73°
2026-04-22 01:06 28.07820 -81.04788 2533 ft 127 kts 73°
2026-04-22 01:07 28.07993 -81.03934 2532 ft 126 kts 73°
2026-04-22 01:07 28.08156 -81.03123 2535 ft 126 kts 73°
2026-04-22 01:07 28.08320 -81.02313 2535 ft 126 kts 73°
2026-04-22 01:07 28.08493 -81.01441 2531 ft 126 kts 73°
2026-04-22 01:08 28.08676 -81.00510 2529 ft 125 kts 73°
2026-04-22 01:08 28.08852 -80.99622 2529 ft 125 kts 73°
2026-04-22 01:08 28.09127 -80.98249 2532 ft 125 kts 73°
2026-04-22 01:08 28.09381 -80.96945 2531 ft 125 kts 73°
2026-04-22 01:09 28.09575 -80.95959 2514 ft 126 kts 74°
2026-04-22 01:09 28.09787 -80.94868 2507 ft 126 kts 73°
2026-04-22 01:09 28.09938 -80.94078 2499 ft 126 kts 74°
2026-04-22 01:09 28.10115 -80.93186 2493 ft 126 kts 73°
2026-04-22 01:10 28.10306 -80.92234 2495 ft 125 kts 72°
2026-04-22 01:10 28.10478 -80.91417 2499 ft 125 kts 73°
2026-04-22 01:10 28.10699 -80.90376 2504 ft 124 kts 73°
2026-04-22 01:10 28.10882 -80.89514 2507 ft 125 kts 73°
2026-04-22 01:11 28.11149 -80.88173 2503 ft 124 kts 73°
2026-04-22 01:11 28.11472 -80.86665 2502 ft 124 kts 72°
2026-04-22 01:11 28.11807 -80.85021 2507 ft 122 kts 72°
2026-04-22 01:11 28.12135 -80.83402 2504 ft 123 kts 73°
2026-04-22 01:12 28.12449 -80.81879 2495 ft 124 kts 73°
2026-04-22 01:12 28.12645 -80.80472 2490 ft 125 kts 84°
2026-04-22 01:12 28.12728 -80.79094 2494 ft 125 kts 81°
2026-04-22 01:12 28.12792 -80.77781 2497 ft 124 kts 82°
2026-04-22 01:13 28.12852 -80.76586 2340 ft 118 kts 82°
2026-04-22 01:13 28.12915 -80.75262 2121 ft 112 kts 81°
2026-04-22 01:13 28.12974 -80.74155 1934 ft 107 kts 84°
2026-04-22 01:13 28.12925 -80.73225 1791 ft 101 kts 89°
2026-04-22 01:14 28.12778 -80.72406 1693 ft 84 kts 98°
2026-04-22 01:14 28.12629 -80.71781 1584 ft 77 kts 98°
2026-04-22 01:14 28.12417 -80.71051 1455 ft 78 kts 101°
2026-04-22 01:14 28.12211 -80.70377 1294 ft 75 kts 109°
2026-04-22 01:15 28.11951 -80.69907 1094 ft 73 kts 111°
2026-04-22 01:15 28.11706 -80.69301 888 ft 74 kts 99°
2026-04-22 01:15 28.11576 -80.68630 839 ft 78 kts 95°
2026-04-22 01:15 28.11482 -80.67854 891 ft 77 kts 90°
2026-04-22 01:16 28.11386 -80.67219 789 ft 66 kts 107°
2026-04-22 01:16 28.11013 -80.66939 516 ft 71 kts 142°
2026-04-22 01:16 28.10681 -80.66634 300 ft 58 kts 115°
2026-04-22 01:16 28.10547 -80.66203 130 ft 51 kts 90°
2026-04-22 01:17 28.10547 -80.65809 26 ft 38 kts 86°
2026-04-22 01:17 28.10579 -80.65402 142 ft 57 kts 84°
2026-04-22 01:17 28.10588 -80.64883 507 ft 61 kts 86°
2026-04-22 01:17 28.10588 -80.64357 904 ft 60 kts 82°
2026-04-22 01:18 28.10654 -80.63897 1195 ft 66 kts 72°
2026-04-22 01:18 28.11031 -80.63650 1396 ft 80 kts
2026-04-22 01:18 28.11502 -80.63827 1436 ft 92 kts 332°
2026-04-22 01:18 28.11818 -80.64434 1273 ft 113 kts 290°
2026-04-22 01:19 28.11958 -80.65198 1272 ft 111 kts 295°
2026-04-22 01:19 28.12064 -80.65955 1293 ft 112 kts 275°
2026-04-22 01:19 28.12067 -80.66682 1229 ft 90 kts 274°
2026-04-22 01:19 28.12052 -80.67281 1057 ft 82 kts 272°
2026-04-22 01:20 28.11872 -80.67738 871 ft 77 kts 206°
2026-04-22 01:20 28.11466 -80.67861 760 ft 73 kts 174°
2026-04-22 01:20 28.11004 -80.67829 722 ft 74 kts 148°
2026-04-22 01:20 28.10700 -80.67584 617 ft 55 kts 121°
2026-04-22 01:21 28.10537 -80.67173 438 ft 57 kts 94°
2026-04-22 01:21 28.10508 -80.66654 272 ft 59 kts 85°
2026-04-22 01:21 28.10531 -80.66170 89 ft 50 kts 88°
2026-04-22 01:21 28.10561 -80.65791 27 ft 37 kts 89°
2026-04-22 01:22 28.10554 -80.65460 29 ft 41 kts 88°
2026-04-22 01:22 28.10586 -80.65228 29 ft 16 kts
2026-04-22 01:22 28.10643 -80.65266 29 ft 10 kts 327°
2026-04-22 01:22 28.10661 -80.65276 29 ft 0 kts 348°
2026-04-22 01:23 28.10662 -80.65276 29 ft 0 kts 348°
2026-04-22 01:23 28.10664 -80.65276 29 ft 2 kts 349°
2026-04-22 01:24 28.10695 -80.65268 29 ft 3 kts 350°
2026-04-22 01:24 28.10705 -80.65265 29 ft 2 kts 60°
2026-04-22 01:24 28.10714 -80.65216 28 ft 4 kts 25°
2026-04-22 01:24 28.10729 -80.65224 28 ft 0 kts 297°